Time,TemperatureF,DewpointF,PressureIn,WindDirection,WindDirectionDegrees,WindSpeedMPH,WindSpeedGustMPH,Humidity,HourlyPrecipIn,Conditions,Clouds,dailyrainin,SoftwareType,DateUTC
2013-04-02 00:02:00,36.0,18.0,30.27,NNE,16,1.0,3.0,47,0.00,,,0.00,,2013-04-02 05:02:00,
2013-04-02 00:23:00,36.0,18.0,30.27,NNE,16,1.0,3.0,47,0.00,,,0.00,,2013-04-02 05:23:00,
2013-04-02 00:32:00,36.0,18.0,30.27,NNE,16,1.0,3.0,47,0.00,,,0.00,,2013-04-02 05:32:00,
2013-04-02 00:43:00,36.0,18.0,30.27,NNE,16,1.0,3.0,47,0.00,,,0.00,,2013-04-02 05:43:00,
2013-04-02 00:52:00,36.0,18.0,30.27,NNE,16,1.0,3.0,47,0.00,,,0.00,,2013-04-02 05:52:00,
2013-04-02 02:02:00,35.0,18.0,30.27,NE,49,3.0,5.0,49,0.00,,,0.00,,2013-04-02 07:02:00,
2013-04-02 02:22:00,35.0,18.0,30.27,NE,49,3.0,5.0,49,0.00,,,0.00,,2013-04-02 07:22:00,
2013-04-02 02:32:00,35.0,18.0,30.27,NE,49,3.0,5.0,49,0.00,,,0.00,,2013-04-02 07:32:00,
2013-04-02 02:43:00,35.0,18.0,30.27,NE,49,3.0,5.0,49,0.00,,,0.00,,2013-04-02 07:43:00,
2013-04-02 02:52:00,35.0,18.0,30.27,NE,49,3.0,5.0,49,0.00,,,0.00,,2013-04-02 07:52:00,
2013-04-02 04:02:00,34.0,17.0,30.27,NE,53,4.0,6.0,50,0.00,,,0.00,,2013-04-02 09:02:00,
2013-04-02 04:22:00,34.0,17.0,30.27,NE,53,4.0,6.0,50,0.00,,,0.00,,2013-04-02 09:22:00,
2013-04-02 04:33:00,34.0,17.0,30.27,NE,53,4.0,6.0,50,0.00,,,0.00,,2013-04-02 09:33:00,
2013-04-02 04:43:00,34.0,17.0,30.27,NE,53,4.0,6.0,50,0.00,,,0.00,,2013-04-02 09:43:00,
2013-04-02 04:53:00,34.0,17.0,30.27,NE,53,4.0,6.0,50,0.00,,,0.00,,2013-04-02 09:53:00,
2013-04-02 06:02:00,32.0,18.0,30.29,NE,51,4.0,6.0,56,0.00,,,0.00,,2013-04-02 11:02:00,
2013-04-02 06:23:00,32.0,18.0,30.29,NE,51,4.0,6.0,56,0.00,,,0.00,,2013-04-02 11:23:00,
2013-04-02 06:33:00,32.0,18.0,30.29,NE,51,4.0,6.0,56,0.00,,,0.00,,2013-04-02 11:33:00,
2013-04-02 06:43:00,32.0,18.0,30.29,NE,51,4.0,6.0,56,0.00,,,0.00,,2013-04-02 11:43:00,
2013-04-02 06:53:00,32.0,18.0,30.29,NE,51,4.0,6.0,56,0.00,,,0.00,,2013-04-02 11:53:00,
2013-04-02 08:02:00,32.0,19.0,30.30,NE,37,2.0,6.0,58,0.00,,,0.00,,2013-04-02 13:02:00,
2013-04-02 08:23:00,32.0,19.0,30.30,NE,37,2.0,6.0,58,0.00,,,0.00,,2013-04-02 13:23:00,
2013-04-02 08:33:00,32.0,19.0,30.30,NE,37,2.0,6.0,58,0.00,,,0.00,,2013-04-02 13:33:00,
2013-04-02 08:42:00,32.0,19.0,30.30,NE,37,2.0,6.0,58,0.00,,,0.00,,2013-04-02 13:42:00,
2013-04-02 08:52:00,32.0,19.0,30.30,NE,37,2.0,6.0,58,0.00,,,0.00,,2013-04-02 13:52:00,
2013-04-02 10:02:00,36.0,19.0,30.32,NE,51,6.0,12.0,49,0.00,,,0.00,,2013-04-02 15:02:00,
2013-04-02 10:23:00,36.0,19.0,30.32,NE,51,6.0,12.0,49,0.00,,,0.00,,2013-04-02 15:23:00,
2013-04-02 10:33:00,36.0,19.0,30.32,NE,51,6.0,12.0,49,0.00,,,0.00,,2013-04-02 15:33:00,
2013-04-02 10:43:00,36.0,19.0,30.32,NE,51,6.0,12.0,49,0.00,,,0.00,,2013-04-02 15:43:00,
2013-04-02 10:57:00,36.0,19.0,30.32,NE,51,6.0,12.0,49,0.00,,,0.00,,2013-04-02 15:57:00,
2013-04-02 12:02:00,41.0,17.0,30.31,North,5,4.0,12.0,38,0.00,,,0.00,,2013-04-02 17:02:00,
2013-04-02 12:25:00,41.0,17.0,30.31,North,5,4.0,12.0,38,0.00,,,0.00,,2013-04-02 17:25:00,
2013-04-02 12:35:00,41.0,17.0,30.31,North,5,4.0,12.0,38,0.00,,,0.00,,2013-04-02 17:35:00,
2013-04-02 12:43:00,41.0,17.0,30.31,North,5,4.0,12.0,38,0.00,,,0.00,,2013-04-02 17:43:00,
2013-04-02 12:55:00,41.0,17.0,30.31,North,5,4.0,12.0,38,0.00,,,0.00,,2013-04-02 17:55:00,
2013-04-02 14:02:00,45.0,19.0,30.28,East,84,8.0,13.0,35,0.00,,,0.00,,2013-04-02 19:02:00,
2013-04-02 14:23:00,45.0,19.0,30.28,East,84,8.0,13.0,35,0.00,,,0.00,,2013-04-02 19:23:00,
2013-04-02 14:34:00,45.0,19.0,30.28,East,84,8.0,13.0,35,0.00,,,0.00,,2013-04-02 19:34:00,
2013-04-02 14:46:00,45.0,19.0,30.28,East,84,8.0,13.0,35,0.00,,,0.00,,2013-04-02 19:46:00,
2013-04-02 14:56:00,45.0,19.0,30.28,East,84,8.0,13.0,35,0.00,,,0.00,,2013-04-02 19:56:00,
2013-04-02 16:02:00,48.0,20.0,30.24,NE,41,2.0,12.0,32,0.00,,,0.00,,2013-04-02 21:02:00,
2013-04-02 16:23:00,48.0,20.0,30.24,NE,41,2.0,12.0,32,0.00,,,0.00,,2013-04-02 21:23:00,
2013-04-02 16:35:00,48.0,20.0,30.24,NE,41,2.0,12.0,32,0.00,,,0.00,,2013-04-02 21:35:00,
2013-04-02 16:44:00,48.0,20.0,30.24,NE,41,2.0,12.0,32,0.00,,,0.00,,2013-04-02 21:44:00,
2013-04-02 16:55:00,48.0,20.0,30.24,NE,41,2.0,12.0,32,0.00,,,0.00,,2013-04-02 21:55:00,
2013-04-02 18:02:00,48.0,20.0,30.22,South,172,3.0,8.0,32,0.00,,,0.00,,2013-04-02 23:02:00,
2013-04-02 18:24:00,48.0,20.0,30.22,South,172,3.0,8.0,32,0.00,,,0.00,,2013-04-02 23:24:00,
2013-04-02 18:43:00,48.0,20.0,30.22,South,172,3.0,8.0,32,0.00,,,0.00,,2013-04-02 23:43:00,
2013-04-02 18:54:00,48.0,20.0,30.22,South,172,3.0,8.0,32,0.00,,,0.00,,2013-04-02 23:54:00,
2013-04-02 20:02:00,46.0,21.0,30.23,East,82,1.0,5.0,37,0.00,,,0.00,,2013-04-03 01:02:00,
2013-04-02 20:23:00,46.0,21.0,30.23,East,82,1.0,5.0,37,0.00,,,0.00,,2013-04-03 01:23:00,
2013-04-02 20:34:00,46.0,21.0,30.23,East,82,1.0,5.0,37,0.00,,,0.00,,2013-04-03 01:34:00,
2013-04-02 20:43:00,46.0,21.0,30.23,East,82,1.0,5.0,37,0.00,,,0.00,,2013-04-03 01:43:00,
2013-04-02 20:53:00,46.0,21.0,30.23,East,82,1.0,5.0,37,0.00,,,0.00,,2013-04-03 01:53:00,
2013-04-02 22:02:00,42.0,22.0,30.26,NNE,28,2.0,4.0,44,0.00,,,0.00,,2013-04-03 03:02:00,
2013-04-02 22:23:00,42.0,22.0,30.26,NNE,28,2.0,4.0,44,0.00,,,0.00,,2013-04-03 03:23:00,
2013-04-02 22:38:00,42.0,22.0,30.26,NNE,28,2.0,4.0,44,0.00,,,0.00,,2013-04-03 03:38:00,
2013-04-02 22:44:00,42.0,22.0,30.26,NNE,28,2.0,4.0,44,0.00,,,0.00,,2013-04-03 03:44:00,
2013-04-02 22:54:00,42.0,22.0,30.26,NNE,28,2.0,4.0,44,0.00,,,0.00,,2013-04-03 03:54:00,